GFSMA_sfc_thetae_069.txt.gz
Theta_e
319 316 315 315 313 310 311 308 307 307 304 304 304 304 304 306 305 304 306 315 318 319 319 318 317 316 315 314 313 313 312 311 311 310 310 310 310 309 309 309 310 309 309
322 318 317 316 314 316 314 310 307 304 301 301 299 300 301 302 301 301 299 302 316 317 317 318 316 316 315 314 312 312 311 310 309 309 308 308 308 308 308 308 308 308 308
324 321 320 319 318 314 312 307 304 301 299 297 294 295 297 299 299 297 297 297 298 310 314 314 314 314 313 313 311 311 310 309 308 308 307 307 306 306 306 306 306 307 306
326 323 321 319 317 311 308 305 302 298 296 295 291 290 290 292 293 294 294 295 295 296 305 310 311 311 312 311 310 309 308 307 307 306 306 305 305 305 305 305 305 305 305
327 324 321 319 314 309 306 303 301 297 294 292 291 288 288 288 288 290 290 293 294 293 294 303 305 308 308 309 309 308 307 306 305 304 304 304 304 304 304 304 304 304 304
328 325 321 317 312 307 304 302 300 297 294 292 291 288 286 286 286 286 286 289 290 290 289 291 291 296 305 305 306 306 305 304 303 302 302 302 302 303 303 303 303 303 303
329 326 321 317 312 308 304 302 300 295 293 291 289 288 287 285 285 284 284 284 285 286 286 287 287 288 291 302 303 303 304 303 302 301 301 301 301 301 302 302 303 303 302
329 327 322 316 313 310 305 302 300 295 293 291 289 287 283 283 284 285 284 284 283 284 285 285 285 287 286 287 293 299 300 300 300 299 299 299 299 300 301 301 301 302 302
326 326 321 317 313 312 306 303 300 297 292 291 291 291 283 284 281 283 283 283 282 282 282 283 284 286 286 286 288 290 295 295 296 296 296 297 297 298 299 300 300 301 301
320 322 319 316 314 313 309 304 301 299 296 291 291 293 291 287 283 280 283 282 282 282 281 281 282 284 284 284 287 290 291 292 292 293 293 294 295 296 297 298 299 300 300
312 313 315 314 313 313 311 306 302 300 297 295 294 293 290 288 286 282 279 280 280 281 281 281 281 281 283 284 284 286 289 290 290 291 291 292 293 295 296 297 299 299 299
306 309 309 312 313 312 310 306 303 300 297 297 296 296 294 289 287 284 280 280 280 279 280 280 281 281 281 282 285 287 288 289 289 289 290 291 292 293 295 297 298 299 298
306 307 308 308 310 310 310 307 303 301 298 297 296 296 295 293 290 286 282 279 279 278 280 281 282 282 283 282 283 286 287 288 288 288 290 291 292 292 293 295 297 297 297
305 306 305 308 308 308 308 306 303 301 300 298 297 297 295 294 289 286 283 281 278 279 279 279 282 283 283 283 284 288 282 288 289 288 290 290 291 292 292 294 295 295 295
302 300 302 303 304 304 305 305 302 300 299 297 297 296 295 293 288 287 285 284 282 277 278 279 280 284 284 283 284 284 281 285 287 288 289 290 290 291 292 292 293 293 294
300 297 297 300 301 302 303 303 302 300 299 297 297 295 292 290 288 286 285 284 283 281 278 280 280 282 283 283 284 282 281 284 286 287 288 289 289 290 291 291 292 292 292
298 296 295 296 298 299 300 301 301 299 297 297 295 292 289 287 286 284 284 283 283 283 280 279 280 282 282 281 281 282 281 281 281 286 287 288 289 289 290 290 290 290 290
296 295 294 293 294 296 296 298 296 295 295 292 290 288 287 285 284 284 284 283 283 282 281 278 279 279 279 280 280 280 280 281 280 283 287 288 289 289 289 289 289 289 288
293 291 291 291 291 292 293 295 295 293 293 292 289 287 286 284 283 282 282 281 281 281 281 280 278 279 279 279 279 279 279 280 280 284 286 287 287 287 287 288 287 287 286
291 290 289 288 288 289 291 292 292 291 290 290 288 287 285 284 283 282 281 281 281 280 280 279 278 278 278 279 279 278 277 279 279 280 283 284 285 285 285 286 286 284 284
289 287 286 285 284 285 288 288 289 288 288 286 285 284 283 283 284 284 282 281 281 280 279 278 277 277 277 278 277 278 277 278 278 279 278 278 278 278 279 282 282 282 283
286 285 285 285 283 286 289 290 288 287 286 284 283 282 282 282 284 285 286 285 283 280 279 278 278 278 278 278 279 278 278 277 275 278 276 276 278 278 278 278 281 282 282
284 285 283 283 283 284 289 290 289 285 285 284 283 282 281 282 283 284 286 286 285 286 284 281 279 279 279 279 279 278 278 277 276 278 276 274 277 275 277 278 280 280 279
283 283 282 281 282 284 288 290 289 284 284 283 283 282 282 282 283 283 283 282 282 283 283 283 282 281 281 281 281 280 279 277 276 277 277 272 274 273 274 274 277 277 277
279 279 279 279 280 283 287 289 288 283 282 282 282 282 282 282 285 286 282 281 281 281 285 285 284 284 284 284 283 278 273 271 272 274 274 272 272 270 271 270 271 275 274
279 280 279 278 280 283 286 288 288 282 280 280 281 282 283 283 286 286 282 282 280 281 280 280 281 284 285 285 286 280 277 271 270 268 273 269 269 267 263 268 269 269 268

GFSMA_sfc_thetae_072.txt.gz
Theta_e
316 315 313 313 313 310 309 307 306 305 304 304 304 304 306 305 305 306 308 315 320 319 320 319 319 316 316 314 313 313 313 312 311 311 310 310 310 310 310 309 309 309 309
319 315 313 311 311 313 312 309 306 302 301 302 301 302 301 301 302 302 302 306 317 319 318 318 318 316 315 314 313 312 312 311 310 309 309 308 308 308 308 308 308 307 307
319 317 315 313 311 314 311 308 303 300 298 300 298 299 299 298 297 299 297 298 300 312 317 316 315 315 313 312 311 311 310 309 308 308 307 307 307 307 307 307 306 306 306
322 318 316 315 315 313 309 306 302 299 298 298 296 296 295 295 295 296 296 296 296 298 306 313 313 312 312 311 310 309 308 308 307 306 305 305 305 305 305 305 305 305 305
324 321 320 317 315 311 307 305 301 299 295 293 291 291 291 292 290 293 294 294 295 294 294 303 306 310 310 310 309 308 307 306 305 304 304 303 303 303 303 303 303 304 304
325 323 322 319 315 310 306 303 300 297 295 293 291 288 287 289 287 288 290 292 292 291 291 292 292 296 308 308 308 307 306 305 303 302 302 302 302 302 302 302 302 303 303
328 325 322 318 314 309 306 302 297 293 292 291 289 288 288 288 286 287 287 288 288 288 289 289 288 289 293 304 306 306 306 304 303 301 300 300 300 300 301 301 301 302 302
329 327 323 318 313 310 306 302 299 294 292 291 289 288 284 285 286 285 286 286 284 285 286 286 286 288 288 288 293 303 304 303 301 300 299 298 298 298 299 300 300 301 301
328 326 324 319 314 312 306 303 300 297 293 291 291 291 283 284 281 285 285 284 285 283 284 284 285 286 286 286 292 295 300 300 299 298 297 296 296 297 298 298 299 300 300
327 326 324 319 316 313 310 305 303 300 297 291 291 292 290 287 284 280 284 283 284 284 281 284 283 284 284 285 288 290 295 296 296 295 295 294 295 295 296 298 299 299 300
316 321 321 318 316 314 312 308 305 301 299 296 294 294 291 287 287 284 281 280 283 284 284 284 284 284 284 283 283 288 293 294 294 293 293 293 293 294 296 297 298 299 300
314 312 313 317 316 314 314 310 307 303 301 300 296 298 293 290 285 284 282 282 283 283 284 283 283 283 283 283 286 288 292 293 293 292 292 292 292 293 295 296 297 298 299
304 311 310 311 313 314 314 312 308 304 302 300 298 298 297 297 289 289 285 282 282 282 282 283 283 283 283 283 284 288 290 291 292 292 291 291 293 292 293 295 296 297 297
306 304 306 310 311 312 312 312 308 305 304 301 301 298 298 298 292 289 286 283 280 280 281 282 283 283 283 283 284 289 284 290 291 292 291 291 292 292 292 293 294 295 295
302 300 303 304 307 309 310 310 307 304 303 301 300 298 298 296 291 290 288 287 286 280 279 281 281 284 284 284 284 285 283 286 290 291 290 291 291 291 292 293 293 294 295
300 299 301 303 304 306 306 307 306 304 302 301 300 298 297 297 292 291 289 287 287 286 282 282 282 283 284 283 284 284 283 285 287 289 290 290 290 291 291 292 292 293 293
299 299 298 300 301 302 303 303 304 303 300 300 298 297 295 296 292 291 290 289 285 284 282 280 281 282 283 282 282 283 282 282 282 287 288 289 289 290 290 291 291 291 291
297 298 296 296 297 300 300 300 301 301 298 298 296 296 295 295 292 290 289 286 285 283 282 279 280 280 281 282 282 282 281 281 281 284 287 288 289 289 290 289 289 289 289
294 293 293 294 293 296 297 297 299 299 296 298 297 294 295 292 289 287 286 285 285 283 282 281 278 279 279 281 279 280 280 280 281 284 287 288 289 288 288 288 287 287 285
294 292 292 293 293 292 292 295 295 296 295 295 294 293 293 288 289 285 284 284 283 283 281 281 278 278 278 279 280 278 278 280 279 280 283 284 285 286 286 286 285 284 283
293 291 290 290 290 289 290 289 291 293 292 292 291 290 290 288 288 286 285 283 284 284 281 279 278 277 277 278 278 278 278 279 279 280 279 279 279 279 279 282 282 282 283
288 287 286 288 286 288 291 292 291 289 289 289 287 286 286 284 286 287 288 287 287 283 281 280 278 278 278 279 279 279 278 277 276 279 277 277 278 278 278 278 281 282 281
286 285 285 284 285 285 290 291 291 288 288 288 287 284 283 284 284 285 287 287 287 287 286 282 280 280 279 279 280 279 279 278 277 278 276 275 278 276 278 278 279 279 278
284 284 284 283 284 283 289 290 290 287 285 286 285 284 283 282 284 284 284 283 283 284 284 283 284 283 282 281 282 282 280 279 278 278 277 273 275 274 275 274 276 276 276
278 279 280 281 280 281 288 289 289 286 284 283 283 283 283 282 285 286 283 282 281 282 285 286 285 285 286 285 283 280 276 275 273 275 276 274 272 271 271 271 271 274 273
280 279 279 282 282 282 286 288 288 285 283 281 282 282 283 283 286 287 283 281 280 281 282 283 283 284 284 285 285 281 278 275 274 270 274 271 269 268 265 268 269 268 268

GFSMA_sfc_thetae_075.txt.gz
Theta_e
315 314 313 313 313 311 309 308 306 306 306 305 305 305 306 306 308 309 311 317 321 321 321 319 316 316 315 314 314 314 313 313 312 311 311 311 311 310 310 310 309 309 309
315 314 313 312 311 310 309 307 305 304 303 303 303 303 302 302 303 305 306 312 319 320 319 320 317 316 315 313 313 313 312 311 310 310 309 309 309 308 308 308 308 308 308
316 316 315 313 310 311 309 307 303 302 300 301 301 302 299 299 299 299 300 301 307 317 319 319 317 315 314 313 312 311 311 310 309 308 308 307 307 306 306 306 306 306 306
320 317 315 314 313 312 309 306 303 301 301 301 299 300 299 297 296 297 297 298 299 301 313 317 316 314 314 313 311 310 310 309 308 307 306 305 305 305 304 304 304 304 304
322 318 316 315 314 312 308 306 302 301 299 296 296 295 295 295 294 297 297 296 297 297 298 308 312 314 313 312 311 310 309 308 306 305 304 304 303 303 303 303 303 303 303
324 320 318 316 314 312 308 305 301 297 294 293 293 290 290 290 291 292 295 295 295 294 293 294 295 298 312 312 311 311 310 308 306 304 303 303 302 301 301 301 302 302 302
326 322 321 318 315 311 308 305 299 295 292 291 290 288 288 288 288 289 291 292 293 292 291 291 292 293 298 311 311 310 310 308 306 304 303 302 300 300 300 300 301 301 301
328 325 323 319 315 311 308 304 300 295 292 293 291 288 286 285 286 287 287 288 289 289 290 289 289 290 291 291 295 309 309 308 306 304 302 300 299 298 298 299 299 300 300
329 327 325 321 316 313 308 305 302 299 294 292 292 292 284 286 282 284 286 285 286 288 286 289 288 290 289 289 296 302 306 306 305 303 301 299 298 297 297 298 298 299 300
328 327 326 323 318 315 311 306 305 301 300 291 292 293 292 289 286 284 284 285 285 286 287 287 288 288 288 288 292 294 299 302 302 301 299 298 296 296 296 297 298 299 299
324 326 325 322 318 315 313 308 305 302 302 299 295 294 292 288 288 285 282 282 283 284 287 286 286 287 287 287 288 290 297 299 298 297 296 295 295 295 296 296 298 298 299
319 316 319 321 319 316 315 311 307 303 303 302 298 300 295 294 288 285 283 282 281 284 285 285 286 286 287 286 287 289 295 296 296 295 294 294 294 294 295 296 297 297 298
309 315 313 313 317 316 316 314 309 306 304 302 302 298 300 299 296 292 288 285 283 283 283 285 285 286 286 286 286 289 291 294 295 295 294 293 293 294 294 295 296 296 296
309 308 312 315 314 314 315 314 311 308 306 304 302 301 300 300 300 293 291 289 283 282 282 283 286 285 285 286 286 289 287 292 294 294 294 293 293 293 293 295 294 294 295
303 302 304 307 312 313 313 313 312 309 307 304 304 303 300 301 300 295 294 292 294 291 281 283 282 285 285 285 286 286 286 289 292 293 293 293 293 293 293 294 294 294 294
300 298 299 301 302 304 306 309 309 309 307 305 304 302 301 300 300 294 292 291 293 295 292 286 283 283 284 284 285 285 285 286 290 291 293 292 291 292 292 293 293 293 293
298 298 298 299 300 300 302 304 305 305 304 304 303 300 299 299 298 293 292 291 290 292 291 282 283 283 283 283 283 285 285 284 284 289 290 291 291 291 291 292 292 291 291
297 297 296 296 299 301 302 302 302 302 302 300 300 299 298 298 296 294 292 290 290 291 291 281 280 281 282 283 283 283 283 283 282 286 289 290 290 290 291 291 290 289 289
295 294 294 295 296 298 299 300 301 300 300 301 300 298 298 297 295 295 293 291 290 288 288 283 279 281 281 282 281 282 281 281 282 284 287 289 289 290 290 289 288 287 285
293 293 292 294 294 294 295 298 298 297 298 298 298 298 297 296 295 294 290 289 286 284 285 284 281 280 280 280 281 279 278 280 279 281 284 284 285 287 287 287 286 284 283
291 291 290 290 291 291 293 293 294 294 294 295 294 294 294 294 292 293 289 287 285 285 284 284 280 279 278 278 278 279 279 279 279 280 280 280 281 281 281 283 282 282 283
287 287 287 288 288 290 293 294 293 291 291 291 291 290 290 287 289 291 291 290 287 286 284 283 281 280 279 279 280 279 278 278 276 280 279 278 279 279 279 279 282 282 281
286 285 285 285 286 287 292 293 292 289 288 289 289 289 286 285 285 287 290 290 289 290 290 285 281 280 279 280 280 279 280 280 279 278 278 276 278 277 279 279 282 280 278
283 284 284 283 284 284 290 291 291 288 286 286 287 287 286 284 284 285 285 285 285 286 287 285 283 284 283 282 282 283 281 280 279 278 279 275 276 276 277 275 278 278 275
281 281 281 279 280 281 288 289 289 286 285 285 285 285 285 283 285 287 284 284 283 283 287 287 286 287 287 286 284 281 279 278 275 276 278 276 273 273 272 271 273 276 273
280 279 280 279 278 282 286 287 288 285 285 283 283 283 283 284 285 287 284 283 281 281 282 283 284 286 286 285 286 284 280 277 275 273 276 275 271 270 267 269 270 269 269

GFSMA_sfc_thetae_078.txt.gz
Theta_e
313 313 314 314 314 311 309 308 307 307 307 306 306 307 308 310 311 312 315 318 322 322 320 320 318 317 315 315 314 314 314 314 313 312 312 312 312 311 311 310 310 310 309
313 313 312 312 312 311 308 307 305 305 304 304 304 304 304 304 306 308 313 313 321 322 321 320 317 317 316 315 314 314 313 312 311 311 310 310 310 309 309 308 308 308 307
314 313 312 312 312 311 308 308 305 305 304 304 304 303 302 302 301 303 304 305 313 319 321 320 318 318 316 315 314 313 313 312 311 310 309 308 308 307 307 306 306 306 305
316 316 316 315 314 312 310 307 304 303 303 303 302 302 301 300 300 299 299 300 302 305 314 320 318 317 316 315 314 313 312 311 310 309 308 307 306 306 305 305 304 304 304
318 318 316 316 313 312 309 307 302 302 300 299 299 297 296 297 298 298 298 298 300 301 302 313 317 315 315 315 315 314 313 311 309 308 307 306 305 304 304 303 302 302 302
320 319 317 315 313 312 309 306 303 299 298 298 295 293 291 290 291 294 297 297 296 297 297 298 299 302 315 315 314 314 313 311 309 307 306 305 304 303 302 301 301 301 301
323 320 319 316 314 312 310 308 302 295 294 292 292 292 290 290 289 289 291 293 295 295 295 295 294 296 299 314 314 314 313 313 310 307 306 304 303 302 301 301 300 300 300
326 323 320 317 314 313 310 306 301 295 294 294 294 291 291 292 288 290 288 292 294 294 293 294 294 295 296 297 302 313 313 313 311 308 306 304 303 301 301 300 299 299 300
328 326 323 321 316 314 311 307 304 303 297 292 293 296 287 290 286 288 289 289 291 293 291 293 293 293 294 295 300 305 311 311 311 309 306 304 302 301 300 299 299 299 299
329 327 325 324 319 316 314 309 307 305 304 295 295 294 293 292 289 290 284 287 288 289 292 292 292 291 292 292 295 298 301 309 308 307 306 304 302 300 299 299 299 299 299
327 327 326 325 322 318 316 312 308 306 306 302 297 292 295 291 288 287 292 286 283 288 289 291 291 291 289 291 292 295 301 304 305 304 303 302 300 299 299 298 299 298 298
323 324 322 324 323 319 317 314 310 307 306 306 301 303 298 292 293 290 287 291 285 285 287 288 289 290 291 291 292 294 299 302 303 301 300 299 298 297 297 298 298 298 298
311 318 317 317 320 319 318 316 311 309 306 305 305 301 303 301 303 294 295 294 287 286 284 287 287 289 290 290 290 293 296 300 300 299 298 297 296 296 296 297 297 296 297
311 312 316 317 317 317 316 316 313 309 307 305 304 304 302 303 302 300 296 294 292 285 284 285 286 287 288 289 290 292 291 295 297 297 297 296 295 295 296 295 296 296 296
304 304 305 312 314 315 313 314 313 309 308 306 305 304 304 303 303 301 299 298 297 295 296 285 285 286 287 288 289 289 289 291 294 295 296 296 295 295 295 295 295 296 296
300 299 299 300 302 307 311 311 311 311 308 307 305 304 303 304 302 301 299 297 297 296 294 291 285 285 286 286 288 287 287 288 291 293 294 295 295 294 294 293 295 294 295
298 298 297 297 299 299 300 304 306 307 306 306 306 303 302 303 302 300 297 296 294 294 292 296 285 285 285 285 285 286 286 286 287 290 293 294 294 293 293 293 293 293 293
296 296 296 295 296 298 298 299 301 303 303 302 303 303 303 301 300 301 297 294 294 294 293 292 283 282 283 284 284 284 284 285 284 288 292 293 293 292 291 292 292 292 290
293 293 293 293 294 296 299 301 301 301 301 302 302 300 301 298 297 297 297 293 293 292 292 291 283 282 282 283 282 283 283 283 284 285 290 291 292 292 291 292 291 289 287
290 290 291 291 292 292 295 298 299 299 299 300 300 300 299 297 297 296 295 294 292 290 289 289 283 281 281 282 282 280 280 282 281 283 286 288 289 289 290 291 289 287 285
288 288 287 288 288 289 292 293 294 295 295 296 296 296 296 295 293 296 294 294 290 288 286 286 285 281 280 279 279 281 280 279 280 281 281 283 283 284 285 287 284 284 284
285 285 285 285 286 289 292 294 294 292 291 291 292 292 291 289 291 293 295 295 291 288 286 286 285 282 282 281 281 279 279 277 276 281 279 279 281 280 281 281 283 284 284
283 284 283 284 285 285 290 292 292 290 290 290 290 289 287 287 287 289 291 293 293 292 293 288 286 284 282 281 280 279 279 279 279 279 281 278 280 279 280 281 284 284 283
282 282 283 282 282 283 289 290 290 288 288 288 288 288 288 287 286 286 286 286 287 288 289 289 287 285 284 283 282 282 281 281 279 279 281 276 278 278 279 278 284 283 281
281 281 281 280 279 280 286 288 288 285 286 286 286 286 286 286 286 289 285 285 285 285 288 290 287 287 287 286 284 282 279 278 275 276 279 277 275 274 274 274 274 280 279
280 279 279 278 277 277 283 287 287 285 285 285 284 284 284 286 287 287 286 284 283 282 283 283 284 285 286 285 286 283 281 279 276 274 277 275 272 273 270 271 271 272 272

GFSMA_sfc_thetae_084.txt.gz
Theta_e
327 328 328 328 328 328 327 326 325 325 325 325 326 326 325 325 324 324 324 317 323 323 323 322 320 320 318 318 317 317 316 316 315 315 314 314 313 312 312 312 311 310 309
326 327 327 327 327 327 325 324 324 324 323 323 323 324 324 324 324 323 323 322 321 324 323 323 322 321 320 319 318 318 317 316 315 314 314 313 313 312 311 310 309 309 308
326 325 326 326 326 326 323 321 322 322 321 321 320 321 321 321 322 322 322 323 322 320 323 323 323 322 322 321 320 319 318 317 316 314 314 313 312 311 311 310 309 308 307
327 325 325 324 323 322 321 320 319 315 316 315 315 315 313 315 316 317 318 320 321 320 320 323 323 322 322 322 321 320 319 318 317 315 314 313 312 312 311 310 309 308 307
328 326 325 322 321 320 317 316 313 314 314 312 310 310 310 310 312 312 315 314 317 318 320 319 321 321 322 322 322 322 320 319 318 315 314 313 312 312 311 309 308 307 306
326 326 326 323 320 319 317 315 313 311 311 314 309 308 311 312 312 310 312 312 312 314 312 317 319 320 318 321 322 323 322 321 319 316 315 313 313 312 311 309 308 307 306
326 324 324 326 321 318 317 316 314 310 307 309 309 311 311 311 309 309 312 311 312 310 311 310 314 318 318 320 321 321 323 323 321 319 316 315 313 312 311 310 308 307 306
326 324 323 322 321 320 320 319 314 312 312 311 308 309 304 310 312 309 311 310 311 311 309 310 312 313 315 316 316 320 321 322 323 321 318 316 314 313 312 311 309 308 306
328 325 324 323 321 319 317 316 314 312 309 308 306 306 298 297 311 313 309 309 309 310 310 311 308 309 309 309 314 315 318 320 321 321 321 318 315 314 312 311 309 308 307
329 327 326 324 323 321 318 318 316 314 311 306 299 303 307 302 302 299 299 299 303 306 308 306 307 308 304 305 307 308 310 315 317 318 319 320 317 314 313 311 309 308 306
330 329 327 325 323 322 321 320 318 313 313 310 306 303 300 303 298 296 300 304 301 302 304 302 303 305 302 307 304 303 305 308 312 313 315 316 317 315 314 312 310 308 306
329 329 328 326 325 323 321 320 319 316 313 312 312 307 303 299 299 295 295 299 303 307 298 297 298 299 304 303 301 301 303 305 309 311 312 313 315 316 313 312 310 308 306
319 321 322 321 322 322 322 321 319 316 314 312 310 310 308 307 307 303 300 301 299 303 303 296 300 300 301 301 304 298 300 303 306 308 310 311 311 313 311 311 309 307 305
317 319 318 319 319 320 320 320 318 317 315 312 311 310 310 307 309 307 302 300 298 300 298 300 302 301 301 302 301 299 301 300 303 306 308 309 310 311 310 308 307 305 304
308 308 311 311 313 314 315 315 315 315 313 312 311 310 310 311 308 308 307 304 303 300 302 307 296 296 297 297 297 299 297 297 299 302 305 307 309 309 308 306 305 303 303
304 305 305 306 307 308 310 311 311 312 312 312 312 310 309 309 309 308 306 305 303 302 299 307 307 298 294 293 294 294 294 294 296 299 301 304 306 307 307 304 302 301 301
299 300 301 302 303 304 305 306 307 308 308 308 309 308 307 308 307 307 306 304 303 302 298 302 305 301 293 290 289 290 291 291 293 295 298 301 303 305 304 301 300 300 299
296 296 297 298 299 300 301 301 302 303 304 303 304 304 304 305 305 305 305 303 302 302 299 297 300 301 289 289 290 287 288 289 290 292 295 298 300 302 299 299 298 297 298
294 295 294 294 295 296 297 298 299 300 301 302 302 300 300 300 299 300 301 301 302 300 300 297 297 300 289 286 286 286 286 286 287 290 293 295 297 299 297 297 296 296 296
292 293 293 293 294 294 294 295 296 297 298 298 299 299 298 297 297 298 298 297 297 297 297 295 295 295 289 284 286 284 282 285 284 286 288 290 293 294 295 295 295 295 294
290 290 290 291 292 292 292 292 292 293 293 293 294 294 295 294 292 295 296 296 296 294 294 293 292 293 289 281 281 284 284 283 283 285 284 285 286 288 291 294 293 292 293
288 289 289 289 289 290 290 290 290 291 290 290 290 291 292 290 291 293 294 294 295 293 290 291 292 290 290 289 286 284 282 280 279 285 283 284 286 285 287 289 291 292 292
287 286 287 287 287 289 288 289 289 289 289 289 289 289 289 290 288 290 291 292 292 293 294 292 289 290 290 290 286 283 282 281 282 283 283 282 285 284 285 286 291 291 291
285 286 286 286 286 286 287 288 288 288 289 289 290 288 288 288 289 289 289 288 288 289 289 289 289 289 290 290 287 286 283 284 284 283 284 281 285 283 285 286 290 290 290
284 285 285 285 284 285 286 287 287 287 287 287 288 289 289 289 289 289 287 286 286 287 289 290 290 291 292 292 288 285 283 281 279 280 283 281 281 280 282 282 286 290 289
282 283 283 284 284 284 286 286 286 286 284 285 287 287 286 288 288 288 286 285 284 285 286 286 286 287 288 288 289 285 284 281 280 277 282 278 278 277 275 276 278 278 284

GFSMA_sfc_thetae_087.txt.gz
Theta_e
329 329 329 329 329 328 327 327 326 325 326 326 326 326 325 324 324 324 324 318 323 324 324 324 323 322 321 320 319 319 319 318 317 317 316 316 316 314 314 313 313 312 311
329 328 328 328 328 328 327 326 325 325 324 324 324 325 325 325 325 325 324 322 321 325 324 325 324 323 323 322 321 320 320 319 318 317 316 316 315 314 314 313 312 312 310
329 327 328 327 328 328 326 325 324 324 323 323 322 323 323 324 323 323 324 324 322 319 324 324 325 325 324 324 323 322 321 320 319 317 317 316 315 314 313 313 312 311 310
330 328 327 327 328 327 324 322 322 321 321 320 320 320 320 320 320 321 322 321 322 322 320 324 325 325 325 325 325 324 323 321 320 319 317 316 316 315 314 313 312 311 310
331 329 328 328 327 324 321 320 319 318 317 317 316 316 318 317 317 316 318 319 319 320 321 321 320 321 325 324 325 326 325 323 322 320 318 317 316 315 315 314 313 312 311
329 328 329 328 326 321 321 319 316 316 316 315 312 311 315 316 316 317 316 316 317 317 318 319 319 318 319 324 324 325 326 326 324 321 320 318 317 316 315 314 313 312 311
328 326 326 325 326 322 320 319 318 316 314 314 311 314 314 315 315 315 315 315 315 315 315 316 316 317 318 321 323 324 325 327 326 324 322 320 318 317 316 315 314 313 312
329 326 325 324 323 321 320 319 317 314 312 313 309 308 304 311 315 314 313 313 314 315 313 312 312 313 315 316 317 323 324 325 326 326 324 322 320 318 317 317 315 314 312
329 326 325 324 324 322 320 320 318 314 311 312 311 306 299 298 307 314 312 313 312 311 312 312 311 310 312 313 315 317 320 323 323 325 326 324 323 320 319 317 316 315 314
330 329 326 325 324 323 320 320 320 317 314 311 302 305 309 306 303 302 304 306 306 308 309 309 310 309 309 309 309 308 311 316 318 320 322 323 323 324 321 319 317 316 314
330 330 328 326 324 324 322 321 320 318 316 314 308 307 302 304 305 299 300 305 307 308 306 307 309 308 308 308 305 306 309 311 312 314 316 318 320 322 323 321 318 317 315
324 324 325 325 326 324 323 322 321 320 317 315 313 312 306 304 299 299 297 300 302 307 307 304 304 305 306 306 304 303 305 309 310 311 312 314 316 318 320 320 321 318 315
320 321 322 322 322 322 320 320 319 318 317 315 313 312 312 310 309 306 301 302 301 306 306 307 303 302 303 304 305 300 302 305 308 308 309 310 313 314 316 318 319 318 315
311 311 311 314 315 316 317 316 316 316 317 315 314 313 312 311 310 308 306 304 301 303 305 305 302 303 304 302 302 300 301 302 303 306 307 308 309 311 313 315 316 317 315
305 306 307 308 309 310 311 312 313 313 312 312 312 312 311 312 311 309 309 307 304 299 301 306 305 302 302 301 300 301 300 300 303 304 304 305 306 308 310 312 314 315 315
301 302 302 303 304 305 307 308 308 310 310 310 309 310 310 310 310 310 308 307 306 303 299 305 306 305 298 296 296 296 297 296 299 301 302 302 303 304 306 309 311 313 314
299 298 298 299 300 300 302 302 303 304 304 305 306 306 305 306 306 306 307 307 305 304 300 302 305 306 296 294 293 293 294 293 294 296 297 299 300 301 302 304 306 310 311
297 297 297 297 297 297 298 298 298 300 300 300 302 303 302 302 302 302 302 303 303 303 301 298 301 302 301 296 295 292 290 290 291 293 296 297 298 298 299 300 302 304 306
294 295 295 295 295 296 295 296 296 296 297 298 298 299 299 299 297 297 298 298 299 300 300 298 297 300 300 289 288 287 287 287 288 290 294 295 295 296 297 298 299 302 299
292 293 293 293 293 293 294 294 294 293 294 295 296 295 295 295 294 294 294 294 295 295 295 295 296 296 297 290 286 287 285 286 287 287 289 290 291 292 293 296 300 296 296
290 291 290 290 291 291 292 291 290 290 290 291 291 292 292 291 289 291 292 292 292 292 292 292 292 293 294 290 284 287 285 288 286 286 285 285 286 287 288 292 294 294 294
289 288 288 288 288 290 291 291 290 288 288 288 288 289 290 288 290 291 291 292 292 290 288 289 289 289 290 291 291 287 286 284 282 285 283 283 285 285 286 288 293 294 294
287 286 287 287 287 288 290 290 289 287 287 287 288 288 288 288 288 288 289 290 290 291 292 290 287 288 288 289 289 288 285 285 284 284 283 281 284 283 286 287 292 293 294
285 285 285 286 286 286 288 288 288 286 286 287 287 287 287 287 288 287 287 286 287 287 288 288 288 288 288 288 287 287 287 285 283 283 284 280 283 283 284 286 292 292 292
283 283 283 283 284 284 287 287 287 285 285 285 286 286 286 286 287 288 286 286 286 286 289 290 291 291 291 290 290 287 284 282 281 280 283 282 282 280 279 283 288 292 292
281 282 281 282 282 283 286 287 287 285 283 283 284 285 285 286 288 288 285 285 283 284 285 285 286 287 287 286 288 286 285 282 280 278 282 279 278 278 275 276 277 283 287

GFSMA_sfc_thetae_093.txt.gz
Theta_e
319 320 320 320 320 318 319 318 318 318 318 319 319 319 318 318 317 317 315 316 322 326 326 327 327 327 325 325 323 322 322 322 321 320 320 320 319 318 318 318 318 317 316
320 320 320 320 320 320 319 318 317 317 317 317 317 318 318 318 318 317 317 315 320 325 326 327 328 329 328 327 327 325 325 323 323 322 320 320 320 319 319 318 318 317 317
321 320 319 319 319 320 319 317 316 316 315 316 315 316 316 317 316 317 316 316 316 319 323 326 328 328 329 330 329 329 328 326 325 324 322 321 320 320 319 318 318 318 317
324 320 319 319 319 319 317 315 314 314 313 314 313 314 312 313 314 314 314 315 315 315 318 323 326 327 328 329 330 330 330 329 328 326 324 323 322 321 320 319 319 318 318
327 323 320 319 319 317 315 315 314 314 313 314 313 313 313 312 312 314 314 314 315 316 317 318 320 321 325 327 329 330 331 330 330 329 328 327 325 322 321 321 320 319 319
328 327 326 324 322 319 316 317 316 315 313 312 312 310 312 310 311 312 313 313 313 313 314 315 316 315 318 323 326 328 329 330 331 330 330 328 327 326 325 324 321 320 320
328 327 325 325 324 320 318 317 316 313 313 312 310 310 309 310 310 310 312 310 311 312 311 312 313 315 315 320 323 326 328 329 329 330 330 330 329 328 327 326 325 323 321
328 326 325 324 323 322 321 318 316 313 313 313 310 307 304 305 307 311 310 310 310 310 310 310 311 311 312 314 314 320 324 326 328 329 330 330 329 329 329 327 327 326 325
328 325 325 323 322 321 320 319 317 315 314 312 312 310 304 302 305 311 310 310 308 307 307 308 309 309 310 311 313 314 319 320 322 323 325 326 328 329 328 329 329 328 326
327 326 324 323 322 321 320 319 318 318 315 313 309 309 311 309 306 305 307 309 308 308 307 307 306 307 309 309 309 308 310 314 316 318 320 321 322 323 324 326 327 327 328
317 317 320 322 322 321 321 320 319 317 317 315 311 309 305 305 305 302 303 306 307 307 307 306 309 310 308 308 307 307 308 311 312 312 314 316 318 318 320 321 322 323 324
306 305 306 307 308 310 312 315 315 313 314 314 315 314 308 307 307 302 303 305 306 308 309 309 307 307 308 307 305 304 307 310 311 312 312 313 314 315 316 318 319 320 320
299 299 301 301 302 302 303 304 304 304 305 305 305 305 307 308 309 307 305 304 303 305 306 307 308 305 307 308 307 302 303 306 309 310 310 311 312 312 313 314 316 316 317
296 296 296 297 298 298 299 299 299 300 301 300 300 301 304 305 304 305 306 303 298 299 300 302 303 302 306 306 304 300 303 303 305 307 308 309 310 311 311 312 313 313 314
295 294 294 294 294 295 296 295 295 295 296 296 296 297 298 301 302 303 303 302 300 295 295 296 301 303 302 302 302 304 303 301 304 306 307 308 308 309 309 309 311 311 312
292 292 291 292 292 292 293 293 293 293 293 293 294 293 294 296 297 298 298 299 299 297 292 297 298 301 302 301 300 300 301 298 300 302 304 304 305 306 307 307 308 309 309
290 290 290 290 290 290 290 290 290 291 290 290 290 290 291 292 293 294 295 295 295 294 292 293 296 297 296 297 297 298 297 298 298 299 300 301 302 303 303 303 304 305 305
288 288 288 288 288 288 289 288 288 289 288 287 288 288 289 291 289 290 290 290 291 291 291 288 291 292 292 294 294 294 296 296 296 297 299 300 300 300 301 301 301 301 301
286 287 287 286 286 287 287 287 288 288 287 287 287 287 287 287 286 286 287 288 288 289 288 287 287 289 290 291 291 292 292 293 292 293 296 297 298 298 299 299 299 299 298
285 285 286 286 286 286 286 286 287 287 286 286 286 286 286 285 284 285 286 286 287 286 286 285 285 286 288 289 290 288 288 290 291 291 292 292 294 294 295 296 296 295 294
284 284 284 283 283 284 286 285 285 285 284 285 284 284 284 285 286 287 286 286 286 285 285 284 284 285 285 286 286 288 287 288 288 289 289 290 288 288 288 290 289 289 290
281 281 281 281 281 283 286 287 286 284 285 284 283 284 284 285 286 287 287 288 287 285 284 284 284 283 284 285 286 285 285 283 282 286 285 286 287 286 286 284 288 289 290
280 280 280 280 280 280 285 286 286 284 284 284 283 283 283 284 284 284 286 287 287 288 289 286 284 283 283 285 285 284 284 284 283 285 285 283 284 282 284 285 287 288 289
278 278 278 278 278 280 284 286 286 284 284 284 284 284 283 283 284 284 285 285 285 285 285 286 285 285 285 286 286 284 283 283 284 285 284 279 279 281 278 282 284 286 289
275 274 278 274 274 277 283 285 285 283 283 283 284 284 284 283 285 287 285 283 284 284 286 288 288 288 289 289 286 283 280 280 280 277 281 280 276 275 273 278 279 284 291
276 276 275 274 274 273 281 285 285 283 282 283 284 284 284 285 286 287 284 284 282 282 282 283 284 285 283 280 281 277 276 276 275 273 278 276 276 275 273 276 277 278 288

GFSMA_sfc_thetae_096.txt.gz
Theta_e
316 319 318 318 318 317 317 316 316 316 316 317 318 317 317 317 317 316 314 315 320 325 327 329 329 329 328 328 327 326 325 324 323 322 322 321 322 321 320 320 320 320 319
318 318 318 319 318 318 318 317 316 315 315 315 316 316 316 317 316 317 316 315 319 323 326 328 330 330 331 331 330 330 328 327 325 324 323 323 322 322 321 320 320 320 320
319 319 318 318 318 318 317 316 315 314 313 314 313 315 315 315 315 315 316 316 316 318 322 326 328 330 331 331 332 332 332 330 329 327 326 324 323 322 322 321 321 320 320
322 318 318 318 318 317 316 314 313 313 314 314 313 314 314 312 312 314 314 315 315 316 319 322 325 327 329 330 331 332 332 332 331 330 329 328 327 325 324 323 322 321 321
326 323 320 318 317 316 315 315 315 315 314 314 313 311 311 313 311 312 312 313 313 314 314 317 319 320 324 327 329 330 331 331 332 331 331 329 329 328 327 326 325 325 323
327 326 325 323 321 319 317 317 316 313 314 311 312 313 313 311 311 309 311 312 311 310 311 312 313 313 317 322 325 327 329 330 330 330 330 330 330 329 328 328 327 326 325
328 327 326 325 324 320 319 318 317 315 314 314 311 311 309 311 309 310 308 309 308 310 309 309 310 311 313 318 321 324 326 328 329 329 329 330 330 330 331 330 328 328 327
328 326 325 324 323 322 321 320 317 314 313 313 312 308 305 309 309 309 309 308 308 308 308 309 308 309 310 311 312 318 322 324 325 325 326 327 327 326 327 328 331 332 330
329 326 325 324 323 321 320 319 318 315 314 313 312 311 305 303 309 312 310 309 309 307 307 307 307 307 308 309 311 313 316 318 321 321 322 322 322 322 324 325 325 326 327
321 323 323 322 321 321 320 319 318 317 315 312 311 309 311 310 305 303 307 307 310 307 306 308 308 308 308 308 308 307 309 313 315 317 317 318 319 320 321 322 322 323 323
308 309 311 312 314 315 316 313 312 310 312 313 311 310 306 306 302 302 300 303 306 308 308 308 308 309 309 308 307 307 308 311 312 312 314 315 316 317 318 319 320 320 321
302 302 301 302 302 302 302 303 303 303 303 304 304 303 302 303 303 302 300 300 299 301 302 303 304 306 306 305 307 304 306 309 311 311 311 312 313 314 315 317 317 318 318
295 295 296 296 297 297 298 298 298 298 298 297 298 298 300 300 302 302 300 298 297 298 298 299 302 302 304 304 306 302 303 307 309 310 310 310 311 311 312 313 314 315 315
293 293 293 293 294 294 294 294 294 294 294 293 292 293 295 296 298 298 298 295 291 292 293 293 297 299 299 300 301 300 302 303 306 307 308 308 309 310 310 310 311 311 312
292 291 291 291 291 291 292 292 291 291 291 291 290 291 291 293 294 294 295 295 293 287 287 289 290 294 295 297 298 298 298 299 302 303 304 304 305 305 306 307 308 309 310
289 289 289 288 289 289 289 289 288 290 290 289 289 288 289 290 290 291 291 292 292 291 287 290 291 292 293 294 294 295 294 295 297 299 301 301 302 302 303 304 305 306 307
288 287 287 287 287 287 287 287 287 288 287 286 287 286 287 287 287 288 288 289 289 288 286 287 289 290 290 290 291 292 293 293 295 297 297 299 299 300 300 300 302 303 304
286 286 286 285 286 286 286 285 285 286 285 285 285 285 285 287 285 286 286 285 286 287 286 283 286 287 287 289 289 289 291 292 292 294 296 297 297 297 298 298 299 299 300
284 285 285 284 284 284 284 285 286 286 285 285 285 284 284 284 283 284 284 284 285 286 286 284 284 286 286 287 286 287 288 289 290 292 293 293 294 294 295 295 296 296 296
283 283 283 283 283 283 284 285 285 284 284 285 285 285 284 283 283 284 284 284 285 284 284 284 283 284 285 286 286 285 285 287 286 288 289 290 292 293 292 293 292 292 292
281 281 281 281 281 282 284 283 283 283 284 284 284 284 284 284 285 286 284 284 284 284 284 283 282 283 283 283 282 284 283 284 285 286 286 287 286 287 288 290 288 288 289
280 280 280 280 280 282 285 286 285 283 284 283 283 283 284 284 285 286 286 287 287 284 284 283 282 281 281 282 283 283 282 282 278 283 283 283 285 285 286 284 287 288 288
279 279 279 279 279 279 284 285 285 283 283 283 283 283 283 283 284 284 285 287 287 287 287 285 282 282 282 284 284 283 281 280 279 282 283 280 281 280 281 281 285 286 287
277 277 278 278 277 279 283 285 285 283 283 283 283 283 283 283 284 284 285 284 284 285 284 284 284 284 285 284 282 280 279 277 279 281 281 276 276 278 277 277 284 285 287
275 275 277 274 273 275 282 284 284 281 282 281 282 283 282 283 285 287 284 283 283 283 285 286 287 286 284 283 282 275 273 273 274 272 279 277 276 275 272 275 280 286 292
275 275 274 273 272 269 280 283 283 279 273 281 283 284 283 285 286 288 285 283 281 282 281 277 277 277 279 277 280 274 273 270 271 270 276 274 275 274 271 277 279 278 285

GFSMA_sfc_thetae_102.txt.gz
Theta_e
315 315 314 315 315 314 315 314 314 314 313 314 314 314 314 314 314 315 314 315 320 325 328 330 331 332 333 333 333 333 333 333 332 330 329 328 327 326 326 325 325 325 324
315 315 316 316 315 315 314 314 314 313 313 312 313 313 313 313 313 313 314 314 319 321 324 327 329 331 332 332 332 332 333 333 333 332 332 331 329 329 328 327 326 326 326
316 316 315 315 316 315 315 314 313 312 311 312 315 314 315 313 312 312 313 312 313 316 319 323 325 326 328 329 329 330 330 331 330 332 332 331 330 330 330 329 329 327 328
321 317 316 316 316 315 314 313 316 316 313 314 312 313 315 312 312 312 311 311 311 311 314 317 320 321 323 325 326 327 328 328 327 328 330 329 328 328 328 329 329 330 328
324 321 320 318 316 314 314 315 316 316 315 316 313 312 312 311 311 311 310 309 309 310 310 313 314 314 318 322 324 324 325 324 323 325 325 327 325 324 326 326 327 328 328
325 324 323 322 320 319 318 317 316 315 316 316 314 312 311 311 309 307 308 309 308 308 307 307 307 308 313 318 320 321 322 320 320 321 321 321 321 322 323 322 322 326 326
327 325 324 324 324 322 321 320 318 317 316 315 311 313 311 310 306 308 307 307 307 308 306 307 306 306 307 314 316 319 319 320 318 318 317 317 318 318 319 320 320 322 322
328 326 325 324 324 322 321 320 318 316 314 315 312 309 303 305 305 308 306 306 305 304 305 304 304 305 305 305 307 314 317 318 318 317 316 316 316 316 316 318 318 319 320
326 325 325 324 322 321 320 319 318 316 313 313 313 310 303 298 304 304 304 303 301 300 300 301 302 303 303 303 306 307 308 309 310 311 311 312 312 313 314 314 314 315 317
314 316 318 318 318 317 315 313 312 311 311 306 303 306 308 305 298 294 298 298 298 296 298 299 300 301 301 302 303 302 301 301 302 303 305 306 307 308 310 311 312 312 312
307 307 307 307 306 306 305 303 300 300 301 303 302 301 300 296 296 291 289 290 292 293 295 293 296 297 299 297 295 296 297 298 299 299 300 301 303 304 306 307 308 308 309
300 300 300 300 297 297 297 296 295 294 294 293 293 293 293 292 291 289 287 287 287 289 290 292 292 294 293 292 293 294 294 296 296 297 297 298 299 301 303 304 306 307 307
296 295 294 293 292 293 292 292 292 291 290 289 288 288 289 289 291 290 288 286 284 286 288 287 292 290 291 290 290 292 293 294 295 296 296 297 298 298 299 301 302 303 303
293 291 290 290 290 290 289 290 289 289 287 287 286 286 287 287 288 288 287 286 282 282 282 283 287 288 289 289 290 291 289 291 293 294 295 295 296 297 297 299 300 300 301
290 288 288 287 287 287 287 288 287 286 286 285 285 285 285 286 286 286 286 285 284 279 279 281 283 286 287 287 288 288 287 290 292 293 293 294 294 295 295 296 297 298 299
287 286 286 286 285 286 286 286 286 285 284 284 284 284 284 284 284 284 285 285 285 283 280 283 284 285 286 286 288 287 287 289 290 291 291 292 293 293 294 294 295 296 297
285 285 285 285 285 284 284 284 284 284 283 283 283 283 283 284 284 284 285 285 284 284 280 282 284 285 284 285 286 286 286 286 286 289 290 291 291 291 292 292 293 293 294
284 284 284 284 284 284 283 283 283 283 282 282 283 283 283 284 283 284 284 284 284 284 282 280 282 283 284 285 284 283 285 286 285 287 290 290 289 290 290 291 291 291 290
283 282 283 282 282 283 283 283 283 283 282 282 282 281 282 281 280 281 281 283 283 283 282 281 282 284 284 284 283 283 283 282 284 286 287 287 288 288 289 290 289 289 288
282 281 282 282 283 282 283 283 282 282 282 282 283 283 282 281 280 281 282 283 282 280 283 283 281 282 282 283 282 280 279 281 280 282 283 285 286 286 287 288 290 291 291
281 281 281 281 281 282 283 282 282 281 281 281 282 282 282 282 285 285 283 283 281 281 283 282 282 280 280 281 280 280 279 278 279 276 278 280 281 281 283 285 290 291 292
280 280 280 280 280 282 287 287 283 281 282 281 281 281 282 281 283 285 286 287 287 284 283 282 280 279 280 281 280 279 277 275 272 277 277 277 280 279 281 283 289 292 291
279 279 279 279 279 281 286 286 285 282 281 281 281 281 282 282 281 281 285 287 286 287 287 284 280 280 281 280 280 278 276 273 273 276 276 271 278 277 280 282 287 288 290
278 278 278 278 278 281 285 285 285 282 281 281 281 281 281 281 282 282 284 284 284 282 283 284 279 280 279 282 281 279 273 270 272 274 275 271 273 275 275 280 284 285 286
276 276 277 275 276 278 283 284 283 281 282 281 281 282 283 283 284 286 284 283 281 280 284 285 283 283 283 283 283 274 271 263 266 267 273 274 271 273 271 275 278 282 283
276 277 276 275 275 276 280 283 283 281 274 279 280 283 283 284 285 286 283 282 280 278 274 271 272 275 277 276 280 274 275 263 262 263 272 272 270 271 269 271 276 275 276

GFSMA_sfc_thetae_105.txt.gz
Theta_e
322 322 322 323 324 323 323 323 323 322 321 321 321 321 321 321 321 321 322 316 319 323 327 329 331 331 331 332 332 332 332 332 333 332 331 331 331 331 331 331 329 329 328
322 323 323 323 324 324 323 323 322 322 321 320 320 321 321 321 321 321 321 322 318 319 322 326 328 329 329 329 329 329 329 330 330 329 330 329 329 329 329 329 330 331 330
321 322 323 323 324 324 322 322 322 321 321 320 321 322 322 322 321 321 320 320 320 316 318 322 324 324 324 326 326 325 325 325 326 324 324 326 326 326 326 326 327 328 328
322 322 323 323 323 322 322 321 321 320 320 319 322 322 322 321 320 320 319 318 318 318 317 318 319 318 319 323 323 322 322 321 320 319 319 320 322 322 322 322 323 323 324
324 322 322 321 320 321 321 319 319 319 322 322 321 321 321 321 320 317 317 316 316 316 315 314 312 312 315 319 319 319 319 319 319 318 318 318 317 318 318 318 318 320 321
326 324 325 324 322 322 320 320 319 320 321 321 318 317 319 320 318 317 315 314 314 313 313 308 310 309 312 313 314 317 318 318 316 315 314 314 314 314 315 315 316 316 318
327 326 325 325 324 323 324 322 321 320 319 320 318 316 316 315 315 314 314 314 310 309 306 306 308 308 309 310 312 314 312 312 311 309 308 308 309 309 310 311 311 313 314
328 328 328 326 325 324 323 322 321 318 317 317 314 313 309 310 312 311 311 310 306 303 300 304 304 304 306 305 304 303 305 307 307 307 307 307 307 308 308 309 309 310 310
328 326 326 326 324 323 321 320 320 318 314 314 314 312 306 302 304 308 307 304 300 298 300 302 300 302 301 298 298 297 300 302 303 304 304 305 305 306 307 307 308 308 308
319 321 322 321 320 318 316 313 313 313 313 308 308 307 308 307 299 297 303 302 296 296 298 297 300 298 295 295 295 294 296 298 299 300 301 302 303 304 305 306 307 307 307
310 310 311 311 309 308 307 306 305 305 307 304 303 301 302 301 300 294 292 293 293 295 295 297 296 295 293 293 293 293 294 295 296 296 298 299 300 302 303 304 304 305 306
303 303 302 302 302 302 301 300 300 299 298 297 296 295 296 295 294 292 290 289 288 292 294 297 293 292 292 291 291 291 292 294 295 296 296 297 297 299 300 301 302 303 303
298 298 297 297 297 297 297 296 295 294 293 292 292 292 293 292 293 292 291 288 288 290 292 294 292 291 290 290 290 291 291 292 294 294 295 295 296 297 297 298 299 300 300
296 295 294 293 293 293 293 293 292 291 291 291 290 290 290 290 290 290 288 286 285 287 288 287 291 290 290 290 290 291 290 290 292 293 294 294 295 295 295 296 297 298 298
293 292 292 291 291 291 292 291 290 289 289 289 289 289 288 288 288 288 287 286 284 282 283 287 286 289 289 290 290 289 289 289 291 292 292 293 293 294 294 295 296 297 298
291 290 289 289 288 289 290 290 288 288 288 288 287 287 286 286 286 286 286 286 286 284 281 286 286 287 288 288 289 289 288 289 289 290 291 291 292 293 293 295 296 297 297
289 288 288 287 287 287 288 287 287 287 286 286 286 285 285 285 285 286 286 286 285 285 282 284 286 287 287 287 288 288 289 287 288 287 290 290 291 291 292 295 295 295 296
287 287 286 286 286 286 286 286 286 286 285 284 284 285 284 285 284 285 285 285 285 285 283 280 283 285 286 287 287 286 285 286 286 286 289 289 290 290 291 293 294 293 293
286 285 285 285 285 285 285 286 286 285 285 285 284 284 284 284 283 284 284 284 285 285 284 282 283 286 286 286 286 285 285 285 285 285 286 287 288 288 289 291 292 292 291
284 284 284 284 285 285 285 285 284 284 284 285 285 285 284 284 283 284 284 284 284 284 284 284 284 283 284 285 285 282 281 283 282 283 284 285 286 286 287 288 289 290 291
283 283 283 283 284 284 285 284 284 284 284 284 284 284 284 284 284 285 285 285 285 284 284 284 283 282 282 282 280 281 280 281 282 281 282 283 283 284 284 285 287 288 289
282 282 282 282 282 284 287 286 284 283 283 283 283 283 284 283 284 285 286 287 288 285 283 283 282 280 281 281 280 280 279 277 276 282 279 280 283 282 284 284 287 287 288
281 281 281 281 282 284 288 287 285 283 283 283 283 283 283 284 283 283 285 286 286 286 286 285 282 281 281 281 281 279 278 276 277 279 278 277 280 281 282 282 286 286 286
280 280 280 280 281 282 287 287 285 283 283 283 283 283 283 283 284 284 284 285 285 283 284 285 284 283 283 283 282 281 278 275 276 277 278 274 279 279 280 282 284 284 284
279 279 279 279 280 281 286 286 285 283 282 282 282 283 284 283 284 285 285 284 283 284 284 284 284 284 284 283 282 279 277 274 274 276 277 275 277 276 278 279 280 282 281
279 279 278 278 278 279 285 286 284 282 281 281 282 283 283 284 285 286 285 284 282 283 282 279 277 279 279 279 279 277 277 274 272 273 276 274 274 275 275 279 279 278 278

GFSMA_sfc_thetae_108.txt.gz
Theta_e
328 328 329 331 331 331 331 331 330 329 329 328 327 327 328 328 328 328 329 318 319 323 327 329 329 329 328 328 327 326 326 325 325 324 323 324 325 326 327 327 327 327 328
329 330 330 331 331 332 331 331 330 329 328 328 327 328 328 329 328 328 327 327 319 319 324 326 326 324 323 324 324 323 323 323 321 321 320 320 320 321 321 322 323 323 324
328 329 330 330 331 332 330 330 330 328 327 327 327 328 328 328 327 325 325 324 323 318 320 317 315 317 319 321 321 320 320 320 320 321 319 318 318 317 318 318 318 318 318
327 329 331 330 331 331 330 329 328 324 327 327 327 326 326 326 325 323 320 322 320 318 318 312 313 315 316 316 317 318 319 317 316 314 313 312 312 312 313 313 313 314 315
326 326 327 327 325 328 328 326 324 323 325 324 324 323 324 323 323 321 318 319 317 316 312 310 311 311 312 314 316 315 313 312 310 310 309 309 310 310 310 310 311 311 312
327 326 326 326 325 325 325 323 323 324 325 324 321 320 321 323 322 317 319 316 314 310 304 306 307 307 309 310 309 309 309 309 309 308 308 308 308 308 308 309 309 310 310
328 327 327 327 328 326 327 325 324 323 325 324 320 319 319 319 317 317 313 312 308 302 304 304 305 306 306 303 303 305 307 308 308 307 307 307 307 307 308 308 309 309 309
330 329 329 329 329 328 327 325 323 322 321 321 317 316 310 312 314 313 313 305 300 302 302 301 304 302 300 299 299 301 303 305 305 305 305 305 306 306 307 307 308 308 308
331 330 329 331 329 329 326 324 323 322 317 318 317 314 306 303 303 309 310 303 298 300 301 301 301 298 297 297 297 296 298 300 302 303 303 303 304 304 305 305 305 306 306
329 329 328 328 326 324 322 320 320 322 320 315 313 312 312 309 300 298 301 302 297 297 299 300 299 296 295 295 295 294 295 297 297 299 300 301 302 303 303 304 304 305 304
320 320 321 320 318 316 314 313 313 314 315 310 309 306 306 305 304 297 293 294 295 297 299 298 296 295 294 294 293 292 294 295 295 296 297 298 299 301 301 302 303 303 304
311 311 311 311 310 309 310 309 308 307 305 303 301 300 299 297 297 294 293 293 291 294 297 297 295 293 293 293 292 291 292 293 295 295 296 296 297 298 300 301 302 303 303
305 304 305 303 304 305 305 303 302 300 299 298 297 296 296 295 295 294 294 292 291 293 295 296 294 293 292 293 292 291 292 292 293 294 294 295 296 297 298 300 301 300 301
305 302 302 300 300 301 300 299 298 297 297 297 295 295 294 293 294 294 292 291 290 291 292 290 293 292 292 292 291 291 292 291 292 293 294 294 295 295 296 298 299 299 300
299 298 298 297 298 297 297 296 296 294 295 294 294 293 292 292 292 292 290 291 290 288 288 290 289 291 291 291 291 291 291 289 290 291 293 293 294 294 296 297 297 298 298
296 296 297 296 295 296 295 294 293 293 292 292 292 291 291 290 290 291 291 290 290 289 287 289 289 290 291 290 290 291 290 289 289 289 291 292 292 293 294 295 295 296 296
295 294 295 294 293 293 293 292 292 291 291 290 290 290 289 290 289 290 290 290 289 289 286 289 289 290 290 289 290 291 290 289 289 288 290 291 291 291 292 293 293 293 293
294 292 293 292 292 292 292 291 289 290 289 289 289 289 288 288 288 289 289 288 288 288 287 283 287 288 288 289 289 288 288 288 288 288 289 289 290 290 290 291 291 291 291
291 289 291 290 290 290 290 290 289 289 289 289 288 288 287 287 287 288 288 287 288 287 286 285 286 289 288 288 288 288 287 288 288 287 288 288 288 289 289 289 289 289 289
289 288 290 290 289 289 289 289 288 288 288 288 288 288 287 287 287 287 287 287 287 287 285 286 287 286 286 287 286 284 284 286 285 287 286 286 287 287 287 288 288 287 288
287 288 288 288 288 288 288 287 288 288 287 287 287 287 287 286 286 287 287 287 287 286 286 286 285 285 285 284 282 283 282 283 286 285 284 286 286 287 287 286 286 287 287
286 286 286 286 287 286 287 288 287 287 286 285 285 286 286 284 285 286 286 287 288 286 283 284 284 283 283 283 283 282 281 280 280 287 281 283 286 284 285 285 286 286 286
284 284 285 285 286 286 288 287 287 286 285 285 285 285 284 285 285 286 286 286 287 287 286 286 284 284 283 283 282 281 281 280 280 282 280 280 284 282 285 284 285 285 285
283 284 284 284 286 286 288 288 286 285 285 285 285 285 285 285 285 285 285 286 286 285 285 286 286 285 285 285 283 282 281 279 281 282 280 278 282 281 283 284 284 284 284
283 283 283 283 284 285 288 288 285 284 284 283 284 285 285 285 285 286 285 285 285 285 285 284 284 285 285 284 283 282 281 279 279 280 280 277 280 279 280 282 283 282 282
283 282 282 283 284 285 288 288 286 284 283 283 283 284 283 284 285 286 286 285 283 285 286 284 282 282 282 282 280 280 280 278 278 278 279 276 278 277 275 282 281 281 280

GFSMA_sfc_thetae_111.txt.gz
Theta_e
328 329 329 330 331 330 330 330 329 329 329 328 328 328 328 328 328 328 327 318 322 326 327 324 322 322 323 323 322 322 322 322 322 320 319 318 316 316 316 316 317 317 318
330 329 329 330 330 331 331 330 329 328 327 328 327 328 328 328 327 326 326 321 320 320 316 317 318 320 321 320 320 321 320 318 316 314 313 313 313 313 313 313 313 314 314
329 329 329 329 330 331 330 330 329 328 326 326 327 327 327 326 325 324 323 323 320 315 313 314 316 316 318 320 318 316 314 313 313 312 311 311 311 311 311 311 311 312 312
330 330 329 329 331 330 330 328 327 326 326 325 323 325 325 325 324 321 321 318 318 315 311 311 312 314 315 314 313 312 312 312 311 310 310 310 310 310 310 310 310 311 311
329 329 328 330 329 328 328 327 325 325 325 323 323 322 323 323 322 319 317 316 313 306 306 310 310 309 309 309 310 310 311 310 309 309 308 308 309 309 309 309 309 309 310
329 328 328 328 327 326 325 325 324 326 325 322 320 320 321 322 320 319 315 310 305 305 305 306 307 306 304 304 306 308 309 309 308 307 307 307 307 308 308 308 308 308 308
329 329 328 328 327 326 327 327 327 324 322 323 319 319 318 320 316 312 309 304 302 303 303 304 302 301 299 301 302 304 307 308 307 306 306 306 306 307 307 307 307 307 307
330 330 329 329 329 328 328 326 324 323 322 321 317 316 310 313 311 311 308 301 300 302 301 302 299 297 297 297 297 300 303 305 306 305 305 305 305 306 306 306 306 307 307
332 332 330 330 329 329 328 327 324 322 320 319 317 313 308 304 303 309 307 300 299 300 301 301 297 296 296 296 295 295 298 300 302 303 303 303 304 304 305 305 306 306 305
332 332 331 330 330 329 325 322 322 323 322 318 314 312 312 308 300 298 303 299 297 298 299 298 296 295 295 295 294 293 295 297 298 299 300 301 302 303 303 305 305 305 305
331 328 327 327 324 322 319 315 316 319 319 316 313 308 306 304 304 299 293 295 296 297 298 296 295 294 294 294 293 292 294 296 296 296 297 298 300 301 303 304 304 304 304
321 320 319 320 318 316 313 314 315 313 310 308 304 303 302 299 299 295 294 294 292 295 297 296 294 293 293 293 293 291 293 294 295 295 296 296 297 299 301 302 302 302 302
316 316 314 313 312 311 310 310 308 305 303 301 299 297 297 296 296 295 294 292 291 293 295 296 294 293 292 293 292 291 293 292 293 294 295 295 296 297 298 299 300 300 300
319 317 310 307 307 306 305 305 302 300 300 299 297 297 295 294 295 294 293 292 290 291 292 291 293 292 292 292 292 292 292 291 292 293 294 294 295 295 296 297 298 298 298
314 309 306 302 303 303 301 300 298 296 297 296 296 295 294 293 293 293 292 292 290 288 288 290 289 292 292 292 291 291 290 290 291 291 293 293 294 294 295 295 296 296 297
305 305 301 300 300 300 298 297 296 296 295 294 294 293 292 292 291 292 292 291 291 289 287 289 289 290 291 290 291 291 290 290 290 290 291 292 293 293 293 294 294 294 295
302 300 299 299 298 297 296 295 294 293 292 291 292 291 291 291 290 290 291 290 289 289 287 289 289 290 290 289 290 290 290 289 289 290 290 291 291 291 292 292 292 292 292
300 298 297 295 295 294 294 293 291 292 291 290 290 290 289 289 289 290 290 289 289 288 287 285 287 288 288 289 288 288 288 289 288 289 290 290 290 290 290 290 290 290 290
295 294 293 293 292 293 292 292 291 291 290 290 290 289 288 288 287 288 288 288 288 287 286 285 285 288 287 287 286 286 286 286 288 289 289 289 289 289 290 289 289 288 288
292 292 292 291 291 291 291 290 290 289 289 289 290 289 288 288 287 287 287 287 287 286 285 285 285 286 285 285 285 283 282 284 284 287 287 286 288 288 289 288 287 287 287
292 291 290 289 290 289 289 289 289 288 288 287 288 288 288 287 288 289 287 287 287 286 285 285 285 285 284 283 281 282 281 282 283 283 282 283 284 284 285 286 285 286 287
288 286 287 287 287 287 290 290 289 287 287 286 286 286 286 284 286 286 287 287 288 286 284 284 284 283 282 282 282 281 281 279 277 282 279 279 283 282 282 282 286 286 286
285 286 285 286 286 286 290 290 289 287 286 286 285 285 284 284 285 285 286 287 287 288 288 286 283 283 282 282 282 281 281 280 279 281 277 277 281 279 281 282 286 286 285
284 284 284 285 286 285 289 289 287 286 286 285 285 285 284 284 285 285 285 284 285 285 285 285 285 285 284 283 283 282 281 280 280 281 278 273 278 278 280 280 285 285 284
284 284 284 285 285 285 289 288 286 285 284 284 285 285 285 285 286 286 284 284 284 284 286 286 285 285 286 285 284 280 277 279 276 278 278 275 276 276 276 277 279 283 283
284 283 284 284 285 286 289 288 286 284 283 283 283 284 284 285 286 286 284 284 282 283 283 282 283 282 282 282 283 279 277 276 277 274 276 273 275 274 272 277 276 276 278

GFSMA_sfc_thetae_114.txt.gz
Theta_e
322 322 323 323 323 323 323 323 323 323 323 323 323 322 323 322 321 321 317 319 319 319 320 321 321 321 322 321 319 317 316 315 314 313 313 313 313 313 313 313 313 314 314
323 323 323 324 324 324 324 323 323 321 321 322 321 324 322 321 320 320 318 316 316 316 316 317 319 321 320 317 315 315 315 314 313 312 311 311 311 312 312 312 312 312 312
323 323 323 323 326 325 324 324 323 321 320 321 321 322 321 321 319 316 318 313 309 313 313 315 317 315 315 314 314 314 314 313 311 311 310 310 310 310 310 310 310 310 310
324 323 324 325 325 324 323 322 321 319 321 318 319 317 319 320 316 314 312 308 301 305 310 312 310 310 310 312 312 312 312 311 310 309 309 309 309 309 309 309 309 309 309
325 323 322 325 326 322 321 321 318 322 319 317 315 315 316 316 313 313 309 302 301 301 303 308 305 305 306 308 310 310 311 310 309 308 308 308 308 308 308 308 308 309 309
325 323 322 322 321 320 320 319 321 322 320 316 317 316 314 314 311 307 299 299 299 299 300 299 298 297 302 304 306 308 309 309 308 307 307 307 307 307 307 308 309 308 308
324 323 322 322 322 320 320 321 323 320 318 315 313 312 311 309 306 300 296 295 297 299 298 296 295 293 294 300 302 305 307 307 307 306 306 306 306 306 308 308 308 307 307
325 324 323 322 323 321 322 322 322 318 318 314 310 309 304 305 304 302 296 295 295 297 296 294 292 293 292 291 295 301 303 305 305 305 305 305 305 306 307 307 306 307 306
325 324 324 324 325 323 322 321 322 319 316 311 311 308 301 299 299 303 294 293 294 294 295 293 292 292 292 290 291 293 299 301 302 303 303 304 304 305 306 305 306 305 305
326 326 325 324 324 325 324 323 322 320 318 311 308 308 303 301 294 293 295 291 293 294 293 292 290 291 291 290 290 294 296 298 298 299 300 301 302 304 304 304 304 303 303
326 325 326 325 323 323 321 319 317 318 317 311 307 302 299 297 297 292 288 289 291 293 292 291 290 289 290 289 288 291 295 296 296 297 298 299 300 301 302 302 303 303 302
322 321 320 323 322 319 317 315 314 314 308 305 301 299 297 295 294 290 288 288 287 290 291 291 289 289 289 289 291 292 294 294 295 296 296 297 297 298 299 301 301 301 301
317 319 318 316 314 313 313 311 309 306 301 298 296 294 294 292 293 291 289 288 287 288 290 289 289 289 290 288 288 291 293 292 294 295 295 295 296 296 297 298 299 299 299
319 317 317 316 312 309 307 305 302 300 297 295 293 292 291 291 291 291 290 288 285 286 287 286 288 288 288 288 289 291 288 291 292 293 294 294 295 295 296 296 297 297 297
316 313 312 311 308 305 303 301 297 295 294 293 292 291 290 290 290 290 289 288 287 284 284 286 285 287 287 287 288 287 286 290 291 291 292 293 294 294 294 295 295 296 296
312 308 307 306 304 302 298 296 294 293 292 291 291 290 289 289 289 289 288 288 287 286 283 286 285 286 287 288 289 287 287 289 290 290 291 292 292 293 293 293 293 294 293
307 304 303 302 300 298 297 294 292 292 291 290 289 288 288 288 287 288 288 288 287 286 284 285 286 286 286 285 286 286 286 285 285 289 290 291 291 291 291 291 291 292 291
303 303 301 300 299 296 295 293 292 291 289 288 288 288 287 289 287 287 287 286 286 286 286 284 284 284 284 284 284 283 286 287 284 288 290 290 290 290 290 290 290 290 289
301 300 299 298 296 294 293 294 291 290 289 288 288 287 287 287 285 286 286 286 286 287 285 283 282 284 283 282 281 282 282 281 285 288 289 288 288 289 289 289 288 288 288
296 295 295 295 295 292 293 291 290 289 288 288 288 287 287 286 285 285 285 285 286 284 283 282 281 280 279 282 280 279 278 278 279 284 285 285 286 288 288 288 286 287 287
294 293 292 291 291 290 290 289 289 288 287 286 287 287 286 286 287 288 286 285 285 284 283 282 281 279 280 280 280 279 278 277 276 276 277 277 279 280 281 284 284 286 286
290 289 288 288 289 290 292 291 289 287 286 285 285 284 285 285 288 290 290 289 288 285 283 281 281 281 282 281 279 278 280 276 272 276 276 277 277 277 278 279 286 286 286
286 286 286 286 286 286 291 291 289 287 286 285 284 284 284 284 284 285 287 288 288 289 288 284 281 282 281 282 280 278 280 279 278 277 275 269 275 275 277 280 286 285 285
285 285 285 286 286 286 291 291 288 286 285 284 284 284 283 283 283 283 284 284 284 285 285 285 284 283 283 282 281 281 281 279 276 276 274 267 273 273 276 276 284 284 283
283 284 285 285 285 285 291 290 287 284 284 283 284 284 284 283 285 287 284 283 283 284 287 288 287 287 286 287 285 281 272 269 266 272 273 271 271 270 272 272 277 282 282
284 283 284 285 285 285 290 290 286 284 282 282 283 284 284 285 286 287 284 283 282 282 282 281 281 283 283 282 285 280 275 268 266 266 273 269 270 269 267 271 272 270 274

GFSMA_sfc_thetae_117.txt.gz
Theta_e
320 320 320 321 321 321 321 320 320 321 321 321 321 321 321 320 317 317 314 315 319 318 320 321 323 320 318 317 316 316 315 314 313 312 312 312 312 312 312 312 312 312 312
320 321 321 321 321 321 321 322 321 319 319 322 321 324 321 318 317 315 312 312 316 316 319 319 318 317 317 316 315 315 314 313 312 311 311 311 311 311 311 311 310 311 311
320 321 321 321 323 322 322 322 321 319 317 319 320 320 321 318 315 314 309 306 309 314 314 314 313 314 314 314 314 314 313 312 311 310 310 310 310 310 310 310 310 310 310
322 320 321 321 325 323 322 320 319 317 317 317 318 317 319 315 311 308 306 303 304 305 308 308 308 310 311 312 313 312 311 310 309 309 309 309 309 309 309 310 309 310 309
323 321 321 322 325 321 319 319 316 317 317 317 315 314 316 311 309 302 299 300 302 303 300 303 304 305 307 309 311 311 310 309 308 308 308 308 308 309 309 309 309 308 308
323 321 320 322 322 319 318 317 316 319 318 317 314 316 313 310 303 297 297 299 299 297 295 294 293 298 302 305 307 309 309 309 307 307 307 307 307 308 308 307 307 307 307
323 321 320 320 318 318 318 318 318 319 318 316 311 312 307 301 296 295 296 297 297 295 293 292 293 292 293 300 304 306 307 307 307 306 306 306 306 307 307 306 306 306 306
323 321 320 319 319 317 317 317 318 317 317 315 309 307 304 302 299 294 294 296 295 294 292 292 292 291 290 290 295 302 303 304 305 305 305 305 305 306 306 306 305 305 305
323 322 321 320 320 320 318 318 318 317 314 313 312 307 298 298 299 295 291 293 294 293 290 291 291 291 290 288 291 294 299 300 302 303 303 304 304 304 304 304 304 304 304
323 323 323 323 322 322 320 320 322 320 317 312 309 307 303 299 294 292 291 290 292 292 289 290 289 289 289 288 291 294 296 297 298 299 300 302 302 303 303 303 303 303 303
324 323 323 322 322 321 322 319 318 319 318 313 308 302 299 296 296 292 288 287 291 291 289 288 288 288 289 288 287 291 294 296 296 297 298 298 299 300 301 301 302 302 302
324 323 322 322 322 321 320 320 320 318 315 312 307 301 298 295 292 289 287 286 287 289 289 288 288 287 288 288 290 292 293 294 295 296 296 297 297 298 298 300 300 300 300
319 322 321 321 320 319 316 315 314 314 311 308 304 298 295 294 294 291 288 286 285 288 288 287 287 288 289 288 288 291 292 292 294 294 295 295 296 296 296 297 298 298 298
323 323 321 322 319 317 315 313 307 305 302 301 297 294 292 291 291 290 289 287 284 285 286 286 287 287 288 288 289 291 287 290 292 292 294 294 294 295 295 295 296 296 296
322 315 318 320 317 314 312 308 306 300 297 294 293 292 290 289 289 289 289 288 287 283 285 285 284 287 287 288 289 287 285 289 291 291 292 293 293 293 293 294 294 294 295
319 316 315 316 314 311 308 305 300 296 295 293 291 290 288 288 288 287 288 288 287 286 284 286 285 286 288 288 288 286 286 289 289 290 290 291 292 292 292 292 292 292 293
317 316 314 311 309 307 304 301 297 294 294 292 290 289 288 288 287 287 287 287 286 286 284 284 286 287 286 285 285 285 286 284 284 289 290 290 290 291 291 291 291 290 290
313 313 310 308 307 304 301 300 296 296 295 291 290 289 287 288 286 287 286 286 286 286 285 283 284 285 285 284 283 283 285 286 283 287 290 289 289 289 289 290 289 288 289
306 304 304 304 302 301 298 297 298 295 292 293 290 289 288 287 285 286 285 285 286 286 285 282 282 285 285 284 281 281 282 282 284 287 289 288 287 288 288 288 287 287 287
302 301 301 301 300 297 297 295 295 293 291 290 290 289 288 287 286 285 285 285 285 283 283 282 282 283 283 282 279 279 278 279 280 283 284 285 285 286 286 286 286 286 287
297 297 295 295 295 294 295 293 292 291 290 288 288 288 287 286 287 288 286 285 285 283 282 282 282 282 282 281 280 280 279 279 279 279 278 277 278 279 280 282 283 286 286
292 291 291 290 291 293 293 293 291 289 288 287 287 286 286 285 288 289 289 289 287 284 283 282 282 283 283 282 280 279 279 277 276 279 278 278 278 276 277 278 286 285 285
288 288 288 287 288 289 292 292 290 288 288 287 286 285 284 284 285 286 289 290 288 289 288 285 283 283 282 282 281 278 279 279 278 279 277 274 276 275 276 280 285 284 284
287 286 286 286 287 286 292 292 289 287 287 286 286 286 285 284 284 285 285 285 285 286 286 286 285 284 284 283 282 281 280 279 279 279 277 272 274 274 274 275 283 283 282
284 284 285 285 285 285 291 291 288 285 285 284 284 285 284 283 285 287 284 283 283 284 287 288 288 287 287 287 284 281 278 276 274 275 276 273 273 270 271 272 277 281 281
284 283 284 285 285 285 291 291 287 286 285 283 283 284 284 284 286 287 283 282 281 282 283 283 284 286 286 284 287 283 278 273 272 271 275 272 271 269 267 270 271 268 273

GFSMA_sfc_thetae_123.txt.gz
Theta_e
313 313 313 313 314 315 316 316 317 318 318 318 318 319 318 317 312 313 310 315 320 322 322 319 317 317 317 316 315 315 314 313 312 312 312 312 312 312 313 312 311 310 311
314 316 316 317 317 318 318 318 318 318 317 318 320 321 317 315 311 308 309 312 318 319 317 316 316 316 315 315 314 314 313 312 311 311 310 311 311 310 310 310 309 309 310
317 317 317 317 318 318 318 318 317 317 315 315 318 319 317 314 308 306 306 305 306 313 313 313 313 313 313 313 313 311 311 310 310 309 310 309 309 309 309 308 308 308 308
319 317 317 318 319 319 318 318 316 315 313 312 314 316 316 311 306 304 303 303 301 301 306 310 310 310 311 312 311 310 310 309 308 308 309 309 308 308 308 308 307 307 307
319 318 317 318 319 318 317 317 315 314 311 312 313 312 310 308 305 303 303 301 298 296 297 305 305 307 308 309 310 309 308 307 307 307 307 308 308 307 307 306 306 306 306
319 318 317 318 318 317 315 314 314 313 312 312 311 308 303 300 300 300 301 299 295 293 293 293 293 296 305 307 307 308 307 306 305 305 305 306 306 306 306 306 306 305 305
319 317 317 317 317 316 316 315 314 312 313 314 308 304 299 298 297 297 296 294 291 290 290 290 290 290 292 302 305 305 305 305 304 304 304 304 304 304 305 305 305 305 305
319 318 317 316 316 315 315 314 313 311 313 314 310 305 298 297 296 296 293 293 289 289 289 289 288 288 289 290 296 302 303 303 303 303 303 303 303 304 304 304 304 304 304
320 319 318 317 316 316 315 313 312 313 311 314 313 308 301 298 295 291 291 292 289 288 288 288 288 287 287 288 291 294 299 300 301 301 301 301 302 302 303 303 303 303 303
320 320 320 319 318 317 315 314 314 314 313 312 311 310 306 304 298 292 291 290 290 288 287 287 287 287 286 287 291 294 297 297 298 298 299 300 300 301 302 302 302 302 302
320 321 320 319 318 317 317 315 312 314 316 316 311 306 302 299 298 295 292 289 289 289 287 286 286 286 286 286 287 290 296 296 296 296 296 297 298 299 300 300 301 301 301
319 320 319 320 319 318 317 317 316 315 316 318 313 308 304 301 298 294 291 286 289 288 288 287 287 286 286 286 289 292 295 296 296 295 295 295 296 296 298 299 299 299 300
318 319 318 318 319 318 318 317 316 316 318 318 316 313 311 309 301 295 292 286 287 288 286 286 287 287 288 287 287 292 293 295 295 294 294 294 295 295 295 296 297 297 298
319 318 318 319 319 318 317 317 317 317 319 318 317 315 311 308 299 295 292 290 286 286 285 285 286 286 287 287 287 292 288 293 294 293 293 294 294 294 294 295 295 295 296
319 316 318 318 319 318 318 318 317 318 316 316 315 313 309 309 300 296 292 290 299 290 284 285 284 286 286 287 287 288 286 289 293 293 293 292 292 293 293 294 294 294 294
318 314 316 317 318 318 319 319 319 317 315 314 313 311 306 304 299 297 293 291 290 290 286 285 285 286 287 288 288 287 286 289 291 292 292 292 291 291 292 292 293 293 292
317 318 317 318 318 318 319 318 317 316 310 312 308 306 307 302 299 296 293 291 290 289 286 284 286 286 286 285 286 287 286 286 285 289 290 291 292 290 291 291 291 290 290
320 320 319 318 318 318 318 315 314 311 309 308 308 302 302 295 295 293 291 290 289 289 287 284 284 284 285 285 285 285 285 286 285 287 289 290 292 289 289 289 289 288 288
318 315 316 316 316 314 312 310 311 308 305 304 303 299 300 295 291 290 289 288 288 288 287 284 283 284 284 284 283 283 283 283 284 287 289 290 289 288 289 288 287 287 287
309 308 307 306 305 304 304 303 302 301 299 298 297 296 295 292 291 288 288 287 286 285 285 284 284 283 282 283 282 281 280 280 281 283 285 285 286 286 288 287 285 286 286
298 299 299 298 299 299 299 298 297 296 294 294 292 292 291 290 290 290 288 286 286 285 284 284 283 282 282 281 281 281 281 280 280 281 280 280 280 279 280 283 282 286 286
293 291 293 292 292 295 295 295 295 294 292 291 290 289 288 286 289 290 290 289 288 285 284 284 284 283 283 282 282 280 280 278 278 279 279 278 280 279 279 278 283 286 285
288 290 290 290 290 289 292 294 293 290 290 289 288 287 286 286 287 287 290 290 289 290 289 287 284 284 282 283 282 279 279 279 279 279 276 275 277 277 278 281 284 287 284
287 288 287 288 288 287 290 292 291 289 288 288 287 286 286 285 286 286 287 286 286 287 288 287 285 284 283 284 285 283 280 279 278 278 278 272 277 275 276 277 283 286 283
285 285 285 285 285 285 289 291 289 286 286 286 286 286 286 285 287 288 285 285 285 285 288 289 288 288 288 288 285 281 276 273 271 275 278 273 274 273 272 272 277 285 282
283 282 284 282 281 281 288 291 289 285 284 284 284 285 284 286 288 289 285 285 283 284 281 284 286 287 288 286 288 283 281 276 272 269 277 276 273 273 270 273 274 273 275